Starlink 6178

operational
NORAD ID: 56387 Int'l Des: 2023-061 Owner: SPXS Country: US Constellation: starlink
LEOCIRCULAR

About Starlink 6178

Description loading...

Live Position

Loading 3D Globe...

Upcoming Passes

Altitude History

Altitude vs Time

uPlot chart will show altitude changes over time

Two-Line Element Set

1 56387U 23061P 25349.22250817 .00000073 00000-0 20456-4 0 9992
2 56387 43.0040 296.0037 0001007 283.1758 76.8972 15.02524447144058
Epoch: Dec 15, 2025 • Age: 29 hours

Current Status

Altitude 559.8 km
Velocity 7.59 km/s
Sub-Earth Point 26.69°N, 168.5°W
Launch Date May 4, 2023
Age 2.6 years
Type internet

Technical Details

Classification Payload
Mass 305.00 kg
Dry Mass 290.00 kg
Total Mass 305.00 kg
Length 0.20 m
Diameter 2.80 m
Span 9.00 m
Shape Box + pan
Manufacturer SPXS
Bus Type Starlink
Phase Status In Orbit
Owner/State SPXS/US

Large Constellations

Loading constellations...